Regional Weather Roundup
Issued by NWS

Home | Current Version | Previous Version | Graphics & Text | Print | Product List | Glossary On
Versions: 1 2 3 4 5 6 7 8 9 10 11 12 13 14 15 16 17 18 19 20 21 22 23 24 25 26 27 28 29 30 31 32 33 34 35 36 37 38 39 40 41 42 43 44 45 46 47 48 49 50
000
ASUS43 KMKX 231800
RWRWI

WISCONSIN REGIONAL WEATHER ROUNDUP
NATIONAL WEATHER SERVICE MILWAUKEE/SULLIVAN WI
100 PM CDT TUE MAY 23 2017

NOTE: "FAIR" INDICATES FEW OR NO CLOUDS BELOW 12,000 FEET WITH NO
SIGNIFICANT WEATHER AND/OR OBSTRUCTIONS TO VISIBILITY.

WIZ001-002-006>008-014>016-023>028-231900-
NORTHWEST WISCONSIN

CITY           SKY/WX    TMP DP  RH WIND       PRES   REMARKS
SUPERIOR ARPT  NOT AVBL
ASHLAND        CLOUDY    55  46  71 NE13      29.88S
6HR MIN TEMP:  46; 6HR MAX TEMP:  55; 6HR PCP: TRACE;

HAYWARD        CLOUDY    56  44  64 NE9       29.84F
6HR MIN TEMP:  44; 6HR MAX TEMP:  56; 6HR PCP:  0.04;

SIREN          CLOUDY    56  44  64 CALM      29.84F
CUMBERLAND     CLOUDY    54  45  71 NE9       29.83F
RICE LAKE      CLOUDY    54  48  80 N6        29.84F
CHETEK         DRIZZLE   54  47  78 NE5       29.83S
LADYSMITH      CLOUDY    54  45  71 NE8       29.84F
EAU CLAIRE     NOT AVBL
MENOMONIE      LGT RAIN  54  48  82 N6        29.81F
NEW RICHMOND   CLOUDY    55  45  68 NE9       29.82F
OSCEOLA        CLOUDY    58  45  60 E10       29.84F
$$

WIZ003>005-009-010-017-018-231900-
NORTH CENTRAL WISCONSIN

CITY           SKY/WX    TMP DP  RH WIND       PRES   REMARKS
MANITOWISH WTR CLOUDY    51  47  87 E3        29.84F
ARBOR VITAE    CLOUDY    52  49  91 N5        29.84S
WOODRUFF       CLOUDY    52  49  91 N5        29.84S
RHINELANDER    CLOUDY    55  47  74 E8        29.83F
6HR MIN TEMP:  47; 6HR MAX TEMP:  55; 6HR PCP:  0.11;

EAGLE RIVER    CLOUDY    53  43  68 NE6       29.83F
LAND O LAKES   CLOUDY    51  46  83 CALM      29.86F
PHILLIPS       CLOUDY    53  43  68 E9        29.83S
6HR MIN TEMP:  44; 6HR MAX TEMP:  53; 6HR PCP:  0.01;

TOMAHAWK       CLOUDY    52  46  79 NE6       29.83F
MEDFORD        CLOUDY    54  45  73 NE13      29.79F
MERRILL        CLOUDY    56  47  72 NE12G17   29.81F
$$

WIZ029-030-035-036-043>047-231900-
CENTRAL WISCONSIN

CITY           SKY/WX    TMP DP  RH WIND       PRES   REMARKS
WAUSAU         CLOUDY    55  46  71 E9        29.78F
6HR MIN TEMP:  48; 6HR MAX TEMP:  55; 6HR PCP: TRACE;

MOSINEE        CLOUDY    55  46  71 NE15G21   29.80S
MARSHFIELD     CLOUDY    54  42  64 E17       29.77S
6HR MIN TEMP:  49; 6HR MAX TEMP:  56;

STEVENS POINT  CLOUDY    55  45  68 E16       29.79S
WAUPACA        CLOUDY    57  48  72 N8        29.78F
WAUTOMA        CLOUDY    57  52  83 MISG        N/A
6HR MIN TEMP:  51; 6HR MAX TEMP:  59;

WISC RAPIDS    CLOUDY    57  49  74 E12       29.78F
6HR MIN TEMP:  50; 6HR MAX TEMP:  58;

CAMP DOUGLAS   NOT AVBL
$$

WIZ011>013-019>022-031-037>040-048>050-231900-
NORTHEAST WISCONSIN

CITY           SKY/WX    TMP DP  RH WIND       PRES   REMARKS
ANTIGO         CLOUDY    52  44  75 E10       29.82F
SHAWANO        CLOUDY    53  49  85 NE8       29.82F
OCONTO         CLOUDY    51  48  89 N5        29.82R
STURGEON BAY   CLOUDY    53  46  77 NE10      29.81F
6HR MIN TEMP:  49; 6HR MAX TEMP:  54; 6HR PCP: TRACE;

GREEN BAY      CLOUDY    53  49  86 NE15      29.79F
6HR MIN TEMP:  53; 6HR MAX TEMP:  56;

MANITOWOC      NOT AVBL
APPLETON       CLOUDY    55  46  71 NE13G20   29.76F
CLINTONVILLE   CLOUDY    54  46  76 NE9       29.79F
OSHKOSH        CLOUDY    58  51  78 N16       29.74F
6HR MIN TEMP:  56; 6HR MAX TEMP:  61;

$$

WIZ032>034-041-042-053>061-231900-
SOUTHWEST WISCONSIN

CITY           SKY/WX    TMP DP  RH WIND       PRES   REMARKS
LA CROSSE      CLOUDY    58  51  78 NE8       29.74F
6HR MIN TEMP:  55; 6HR MAX TEMP:  60;

SPARTA         CLOUDY    56  50  82 CALM      29.76F
VIROQUA        CLOUDY    55  54  97 MISG      29.73F
6HR MIN TEMP:  51; 6HR MAX TEMP:  56; 6HR PCP:  0.15;

BOSCOBEL       CLOUDY    62  52  69 SW6       29.73F
6HR MIN TEMP:  54; 6HR MAX TEMP:  63;

PRAIRIE DU CHI CLOUDY    59  50  71 W7        29.74F
PLATTEVILLE    CLOUDY    58  53  84 W6        29.75F
$$

WIZ056-057-062-063-064-067-068-231900-
SOUTH CENTRAL WISCONSIN

CITY           SKY/WX    TMP DP  RH WIND       PRES   REMARKS
REEDSBURG      PTSUNNY   59  53  78 CALM      29.73F
BARABOO/DELLS  PTSUNNY   61  49  66 SW3       29.74F
LONE ROCK      NOT AVBL
MINERAL POINT  CLOUDY    59  54  82 S3        29.75F
MADISON        CLOUDY    62  50  64 S7        29.72F
6HR MIN TEMP:  56; 6HR MAX TEMP:  63;

MIDDLETON      CLOUDY    63  52  67 S6        29.75F
WATERTOWN      CLOUDY    63  56  79 S7        29.74F
MONROE         CLOUDY    59  50  72 S5        29.75F
JANESVILLE     PTSUNNY   63  54  72 SW8       29.73F
$$

WIZ051-052-058>065-066-070>072-231900-
SOUTHEAST WISCONSIN

CITY           SKY/WX    TMP DP  RH WIND       PRES   REMARKS
MILWAUKEE      CLOUDY    66  52  60 SW12      29.75F
6HR MIN TEMP:  60; 6HR MAX TEMP:  66;

WAUKESHA       CLOUDY    59  52  77 W5        29.76F
MILWAUKEE/TIMM PTSUNNY   63  52  67 SW7       29.76F
RACINE         CLOUDY    66  50  56 SE10      29.76F
6HR MIN TEMP:  60; 6HR MAX TEMP:  67;

KENOSHA        CLOUDY    64  51  62 S14       29.75F
6HR MIN TEMP:  59; 6HR MAX TEMP:  67;

FOND DU LAC    TSTM      59  54  83 N8        29.74S
6HR MIN TEMP:  57; 6HR MAX TEMP:  64; 6HR PCP:  0.03;

SHEBOYGAN      CLOUDY    53  51  93 NE13      29.76F
6HR MIN TEMP:  52; 6HR MAX TEMP:  59;

WEST BEND      CLOUDY    61  54  77 S7        29.75F
JUNEAU         CLOUDY    60  53  77 S8        29.76F
$$

LSZ147-162-231900-
LAKE SUPERIOR

STATION/POSITION TIME  TEMP    WIND        PRES    WAVE
                       AIR SEA DIR/SP/G            HT/PER
                 (UTC) (F)     (DEG/KT/KT) (MB)    (FT/S)
W MID LAKE BUOY  1650   40 37   10/  6/  8 1013.1R   0
DEVILS ISLAND    1700   42      50/ 12/ 13 1013.1S
PORT WING        1740   44      30/ 16/ 18 1011.9F
SAXON HARBOR     1740   43     360/  5/  7 1011.9F
$$

LMZ867-665-643>646-231900-
LAKE MICHIGAN

STATION/POSITION TIME  TEMP    WIND        PRES    WAVE
                       AIR SEA DIR/SP/G            HT/PER
                 (UTC) (F)     (DEG/KT/KT) (MB)    (FT/S)
CHAMBERS ISLAND  1730   48      20/  9/ 10 1009.5F
N MID LAKE BUOY  1650   41 39   50/  8/  8 1011.3F   1
NORTHPORT PIER   1740   52      80/  6/ 11 1009.8F
SISTER BAY       1706   55     130/  6/  9   N/A
KEWAUNEE LAKESHO 1730   47      30/ 10/ 14 1009.0S
SHEBOYGAN LAKESH 1700   47     350/  9/  9 1008.5F
PORT WASHINGTON  1740   54     170/  3/  4 1008.8F
ATWATER BUOY     1609   49     140/  8/  8 1008.4F
MILWAUKEE LAKESH 1730   53      40/  4/  4   N/A
S MID LAKE BUOY  1650   49 45  180/  6/  8 1009.5S   1
KENOSHA   LAKESH 1700   64     180/  8/ 11 1008.1
$$

TC  - TEMPERATURE IN CELSIUS
VSB - VISIBILITY IN STATUTE MILES
WCI - WIND CHILL INDEX
HX  - HEAT INDEX




USA.gov is the U.S. government's official web portal to all federal, state and local government web resources and services.